Date String (YYYY-MM-DD hh:mm:ss) UTC,Instrument flags,Ambient pressure (hPa),Sample flow (lpm),Bypass flow (lpm),Sample temperature (°C),Ambient temperature (°C),ASC tube jacket temperature (°C),LED temperature (°C),Box temperature (°C),Sample RH (%),Span deviation,Mass concentration (μg/m³),Mass concentration (μg/m³),Mass concentration (μg/m³)
DateTimeUTC,F1_M11,P_M11,Q1_M11,Q2_M11,T1_M11,T2_M11,T3_M11,T4_M11,T5_M11,U1_M11,ZSPAN_M11,X2_M11,X0_M11,X1_M11
2022-02-05 13:00:00,,0826.8,5.00,0.00,21.6,21.2,00.0,30.7,23.2,06.1,0000.0,0000.62,0002.27,0000.37
2022-02-05 13:01:00,,0826.8,5.00,0.00,21.8,22.1,00.0,30.7,23.5,05.8,0000.0,0000.66,0002.37,0000.37
2022-02-05 13:02:00,,0826.8,4.99,0.00,21.9,22.9,00.0,30.8,23.9,05.9,0000.0,0000.69,0002.43,0000.37
2022-02-05 13:03:00,,0826.7,5.00,0.00,22.0,23.1,00.0,30.8,24.0,06.4,0000.0,0000.73,0002.54,0000.36
2022-02-05 13:04:00,,0826.6,5.00,0.00,22.0,22.7,00.0,30.9,23.9,06.4,0000.0,0000.72,0002.07,0000.36
2022-02-05 13:05:00,,0826.7,4.99,0.00,22.0,22.3,00.0,30.9,23.7,06.3,0000.0,0000.76,0002.01,0000.36
2022-02-05 13:06:00,,0826.6,5.01,0.00,21.9,21.9,00.0,30.9,23.6,06.3,0000.0,0000.79,0002.10,0000.37
2022-02-05 13:07:00,,0826.7,5.00,0.00,21.9,21.7,00.0,30.9,23.5,06.8,0000.0,0000.80,0001.88,0000.36
2022-02-05 13:08:00,,0826.6,4.99,0.00,21.8,21.4,00.0,30.9,23.4,06.8,0000.0,0000.81,0001.62,0000.37
2022-02-05 13:09:00,,0826.7,5.00,0.00,21.8,21.2,00.0,30.8,23.3,06.6,0000.0,0000.78,0001.55,0000.37
2022-02-05 13:10:00,,0826.7,4.99,0.00,21.7,21.1,00.0,30.8,23.3,06.6,0000.0,0000.77,0001.51,0000.36
2022-02-05 13:11:00,,0826.9,5.00,0.00,21.7,20.9,00.0,30.8,23.2,06.2,0000.0,0000.75,0001.41,0000.37
2022-02-05 13:12:00,,0826.8,5.00,0.00,21.6,20.8,00.0,30.8,23.2,06.7,0000.0,0000.74,0001.36,0000.37
2022-02-05 13:13:00,,0826.7,4.99,0.00,21.6,20.7,00.0,30.8,23.1,07.0,0000.0,0000.72,0001.33,0000.38
2022-02-05 13:14:00,,0826.7,5.01,0.00,21.6,20.7,00.0,30.7,23.0,06.2,0000.0,0000.72,0001.31,0000.39
2022-02-05 13:15:00,,0826.7,4.99,0.00,21.5,20.9,00.0,30.7,23.1,06.3,0000.0,0000.70,0001.27,0000.41
2022-02-05 13:16:00,,0826.6,4.99,0.00,21.7,21.7,00.0,30.7,23.4,06.6,0000.0,0000.68,0001.16,0000.42
2022-02-05 13:17:00,,0826.7,5.02,0.00,21.8,22.6,00.0,30.8,23.7,06.3,0000.0,0000.65,0001.24,0000.42
2022-02-05 13:18:00,,0826.7,4.99,0.00,21.9,22.7,00.0,30.8,23.8,06.2,0000.0,0000.59,0001.18,0000.42
2022-02-05 13:19:00,,0826.7,5.01,0.00,21.9,22.4,00.0,30.8,23.7,06.1,0000.0,0000.57,0001.11,0000.42
2022-02-05 13:20:00,,0826.7,5.00,0.00,21.9,22.0,00.0,30.8,23.6,06.2,0000.0,0000.58,0001.12,0000.42
2022-02-05 13:21:00,,0826.6,4.99,0.00,21.9,21.8,00.0,30.8,23.6,06.2,0000.0,0000.60,0001.42,0000.44
2022-02-05 13:22:00,,0826.5,5.01,0.00,21.8,21.6,00.0,30.8,23.5,06.2,0000.0,0000.60,0001.60,0000.44
2022-02-05 13:23:00,,0826.4,4.98,0.00,21.8,21.4,00.0,30.8,23.4,06.4,0000.0,0000.61,0001.60,0000.44
2022-02-05 13:24:00,,0826.2,5.01,0.00,21.7,21.2,00.0,30.8,23.3,06.3,0000.0,0000.62,0001.60,0000.44
2022-02-05 13:25:00,,0826.2,5.01,0.00,21.7,21.0,00.0,30.8,23.2,06.5,0000.0,0000.62,0001.75,0000.44
2022-02-05 13:26:00,,0826.1,5.00,0.00,21.6,20.8,00.0,30.8,23.2,06.4,0000.0,0000.64,0002.68,0000.44
2022-02-05 13:27:00,,0826.1,5.00,0.00,21.6,20.7,00.0,30.7,23.1,06.6,0000.0,0000.67,0002.74,0000.43
2022-02-05 13:28:00,,0826.1,5.00,0.00,21.6,21.1,00.0,30.7,23.2,06.6,0000.0,0000.70,0002.69,0000.45
2022-02-05 13:29:00,,0826.2,4.99,0.00,21.7,22.0,00.0,30.8,23.5,06.4,0000.0,0000.69,0003.49,0000.45
2022-02-05 13:30:00,,0826.3,5.01,0.00,21.9,22.8,00.0,30.8,23.8,06.4,0000.0,0000.70,0004.14,0000.45
2022-02-05 13:31:00,,0826.3,5.00,0.00,22.1,23.2,00.0,30.9,24.0,06.4,0000.0,0000.71,0004.17,0000.45
2022-02-05 13:32:00,,0826.3,4.99,0.00,22.1,22.7,00.0,30.9,23.9,06.2,0000.0,0000.70,0003.95,0000.44
2022-02-05 13:33:00,,0826.1,5.00,0.00,22.0,22.2,00.0,30.9,23.8,06.0,0000.0,0000.68,0003.73,0000.44
2022-02-05 13:34:00,,0826.2,5.01,0.00,22.0,21.9,00.0,30.9,23.6,05.9,0000.0,0000.72,0003.86,0000.45
2022-02-05 13:35:00,,0826.2,4.99,0.00,21.9,21.6,00.0,30.9,23.5,05.9,0000.0,0000.75,0003.97,0000.44
2022-02-05 13:36:00,,0826.2,5.01,0.00,21.9,21.4,00.0,30.9,23.4,06.1,0000.0,0000.75,0003.76,0000.43
2022-02-05 13:37:00,,0826.3,5.00,0.00,21.8,21.2,00.0,30.9,23.3,06.1,0000.0,0000.74,0002.89,0000.43
2022-02-05 13:38:00,,0826.1,5.00,0.00,21.7,21.0,00.0,30.8,23.2,05.8,0000.0,0000.71,0002.87,0000.43
2022-02-05 13:39:00,,0826.2,5.00,0.00,21.6,20.8,00.0,30.8,23.1,06.0,0000.0,0000.70,0002.93,0000.42
2022-02-05 13:40:00,,0826.1,5.00,0.00,21.6,20.6,00.0,30.8,23.0,05.8,0000.0,0000.70,0002.29,0000.42
2022-02-05 13:41:00,,0826.1,4.99,0.00,21.5,20.4,00.0,30.7,22.8,05.7,0000.0,0000.70,0001.96,0000.42
2022-02-05 13:42:00,,0826.1,5.02,0.00,21.4,20.9,00.0,30.7,23.0,06.2,0000.0,0000.70,0001.97,0000.42
2022-02-05 13:43:00,,0826.0,5.00,0.00,21.6,22.0,00.0,30.7,23.3,06.0,0000.0,0000.69,0001.94,0000.41
2022-02-05 13:44:00,,0826.0,4.99,0.00,21.8,22.8,00.0,30.8,23.6,05.6,0000.0,0000.68,0001.90,0000.41
2022-02-05 13:45:00,,0826.0,5.01,0.00,21.9,22.8,00.0,30.8,23.7,05.7,0000.0,0000.64,0001.78,0000.41
2022-02-05 13:46:00,,0826.0,5.00,0.00,21.8,22.2,00.0,30.8,23.6,05.7,0000.0,0000.59,0001.67,0000.40
2022-02-05 13:47:00,,0826.0,4.99,0.00,21.7,21.6,00.0,30.8,23.3,05.7,0000.0,0000.60,0001.68,0000.40
2022-02-05 13:48:00,,0825.9,5.01,0.00,21.7,21.2,00.0,30.7,23.2,05.7,0000.0,0000.58,0001.72,0000.40
2022-02-05 13:49:00,,0825.9,4.99,0.00,21.5,20.7,00.0,30.7,23.0,06.0,0000.0,0000.58,0001.90,0000.39
2022-02-05 13:50:00,,0825.9,4.99,0.00,21.4,20.4,00.0,30.6,22.8,05.9,0000.0,0000.59,0002.19,0000.39
2022-02-05 13:51:00,,0825.9,5.02,0.00,21.3,20.1,00.0,30.6,22.6,06.1,0000.0,0000.57,0001.70,0000.39
2022-02-05 13:52:00,,0826.0,4.99,0.00,21.2,19.9,00.0,30.5,22.5,06.0,0000.0,0000.56,0001.48,0000.39
2022-02-05 13:53:00,,0826.0,5.01,0.00,21.1,19.9,00.0,30.5,22.4,05.9,0000.0,0000.55,0001.47,0000.38
2022-02-05 13:54:00,,0826.0,4.99,0.00,21.2,20.9,00.0,30.5,22.7,05.9,0000.0,0000.60,0001.56,0000.38
2022-02-05 13:55:00,,0826.0,4.99,0.00,21.4,22.0,00.0,30.5,23.1,06.2,0000.0,0000.62,0001.60,0000.39
2022-02-05 13:56:00,,0825.9,5.02,0.00,21.5,22.5,00.0,30.6,23.4,06.3,0000.0,0000.64,0001.67,0000.39
2022-02-05 13:57:00,,0826.0,4.99,0.00,21.6,22.2,00.0,30.6,23.3,05.7,0000.0,0000.67,0001.77,0000.39
2022-02-05 13:58:00,,0826.1,5.00,0.00,21.5,21.8,00.0,30.6,23.2,06.3,0000.0,0000.67,0001.85,0000.39
2022-02-05 13:59:00,,0826.1,5.00,0.00,21.5,21.5,00.0,30.6,23.0,06.4,0000.0,0000.65,0001.76,0000.39
